CZ-6A DEB

Satellite information

Favourite Embed

Satellite Type and Status

DEBRISIN ORBIT

Key statistics

Satellite CZ-6A DEB at a glance.

Uptime

1075

Days in orbit

Revolutions

≈ 14.1

Per day

Orbit

SSO

Sun Synchronous Orbit

Inclination

98.8

Latest

Satellite identification and parameters

Extended collection of information and parameters for CZ-6A DEB.

Object identification

Identified? True

Debris? True

Object name: CZ-6A DEB

International designator: 2022-151LX

Object number (NORAD): 54571

Object ID (CCSDS): 54571

Country: PEOPLES REPUBLIC OF CHINA (PRC)

Current information (Y/N): Y

RCS size: SMALL

Orbital parameters

Period: 102.12 minutes

Inclination: 98.7761 deg

SMA: 7237.16 km

Apoapsis: 901.361 km

Periapsis: 816.689 km

RAAN: 282.0247 deg

Eccentricy: 0.00584982

Argument of periapsis: 314.1193 deg

Mean anomaly: 45.5173 deg

Mean motion: 14.10101806 rev/day

Mean motion (dot): 0.00001411 rev/day2

B* drag term: 0.00081018165 1/REarth

Two-line elements (TLE)

Creation date: Oct. 21, 2025, 3:26 a.m.

Reference frame: TEME

Reference center: EARTH

Epoch: Oct. 20, 2025, 10:15 p.m. UTC

TLE line 0: 0 CZ-6A DEB

TLE line 1: 1 54571U 22151LX 25293.92749830 .00001411 00000-0 81018-3 0 9994

TLE line 2: 2 54571 98.7761 282.0247 0058498 314.1193 45.5173 14.10101806150949

Live tracking on map

Real-time ground track for satellite CZ-6A DEB.

In-orbit conjunctions

A list of the most updated potential collisions computed for object CZ-6A DEB.

Target Orbit TCA Probability of collision Miss distance Type
FENGYUN 1C DEB SSO 2025-03-30 04:57:12 0.0001358812 443.0 (m) DEBRIS
DELTA 1 DEB SSO 2025-02-11 23:42:48 0.0001324975 256.0 (m) DEBRIS
CZ-6A DEB LEO 2024-11-15 04:35:34 0.0001103996 954.0 (m) DEBRIS
CZ-6A DEB SSO 2024-08-10 04:24:14 0.0005653272 194.0 (m) DEBRIS

Associated space launch

Chinese satellite reported for atmospheric/ocean/environmental/spatial parameter research purposes, details TBD.

CZ-6A DEB was lifted into orbit during the mission ‘Long March 6A | Yunhai 3’, on board a Long March 6A space rocket.

The launch took place on Nov. 11, 2022, 10:52 p.m. from Launch Complex 9A.

For more information about the launch, click the button.

Launch to space Long March 6A | Yunhai 3
Long March 6A | Yunhai 3

Agency: N/A

Status: Launch Successful

Launch date: Nov. 11, 2022, 10:52 p.m. UTC

Rocket: Long March 6A

Launch pad: Launch Complex 9A

Location: Taiyuan Satellite Launch Center, People's Republic of China

...

Latest news about this satellite

There are no fresh news available about this satellite. Check back as we update our databases every day.


Newsletter sign-up

Weekly statistics, charts and insights to help you stay on top of the space industry.